User: anonymous   Login
Location: Darlington Observatory
(36.4817°N, 105.8156°W)
Time: 19:19:29
(UTC-06:00)
Language:

Cosmos 2278 Rocket - Orbit

View from above orbital plane
View from above orbital plane
View from above satellite
View from above satellite

Ground track
Ground track

The orbit data is extracted from the following two-line orbital elements,

1 23088U 94023B   17149.60582313 -.00000243 +00000-0 -10150-3 0  9990
2 23088 070.9990 321.0542 0002253 169.6829 190.4340 14.14651971192649
Epoch (UTC): 29 May 2017 14:32:23
Eccentricity: 0.0002253
inclination: 70.9990°
perigee height: 842 km
apogee height: 845 km
right ascension of ascending node: 321.0542°
argument of perigee: 169.6829°
revolutions per day: 14.14651971
mean anomaly at epoch: 190.4340°
orbit number at epoch: 19264

The dashed part of the orbit path shows where the satellite is in the earth's shadow,  

DLR